Peotone Weather
Station Historical Data
Daily Summary for May 16, 2018 Units:  Metric    English   Both
« Previous Day
Next Day »
Daily Weekly Monthly Yearly Custom
  High: Low: Average:
Temperature: 27.9 °C 9.8 °C 18.4 °C
Dew Point: 16.3 °C 6.8 °C 11.6 °C
Humidity: 90% 41% 67%
Wind Speed: 25.9km/h 0km/h 6.4km/h
Wind Gust: 27.7km/h - -
Wind- - NE
Pressure: 1016.8 hPa 1013.4 hPa -
Precipitation: 0 mm    
Historical Graphs
 
 
Tabular Data for May 16, 2018
Time Temperature Dew Point Pressure Wind Wind Speed Wind Gust Humidity Rainfall Rate (Hourly) solar Conditions
00:00 10.5 °C 7 °C 1015.8 hPa North 7.4 km/h 11.1 km/h 79% 0 mm 0.00 W/m2
00:03 10.5 °C 7 °C 1015.8 hPa NNE 7.4 km/h 13 km/h 79% 0 mm 0.00 W/m2
00:05 10.5 °C 6.8 °C 1015.8 hPa NE 5.6 km/h 13 km/h 78% 0 mm 0.00 W/m2
00:08 10.5 °C 6.8 °C 1015.8 hPa NE 7.4 km/h 14.8 km/h 78% 0 mm 0.00 W/m2
00:10 10.6 °C 6.9 °C 1015.8 hPa NE 9.3 km/h 14.8 km/h 78% 0 mm 0.00 W/m2
00:13 10.6 °C 6.9 °C 1015.8 hPa NE 5.5 km/h 14.8 km/h 78% 0 mm 0.00 W/m2
00:15 10.6 °C 6.9 °C 1015.8 hPa NNE 5.6 km/h 14.8 km/h 78% 0 mm 0.00 W/m2
00:18 10.6 °C 6.9 °C 1015.8 hPa NNE 5.5 km/h 13 km/h 78% 0 mm 0.00 W/m2
00:20 10.6 °C 6.9 °C 1015.8 hPa NE 3.7 km/h 13 km/h 78% 0 mm 0.00 W/m2
00:25 10.6 °C 6.9 °C 1015.8 hPa NE 7.4 km/h 11.1 km/h 78% 0 mm 0.00 W/m2
00:30 10.6 °C 6.9 °C 1015.8 hPa NE 7.4 km/h 11.1 km/h 78% 0 mm 0.00 W/m2
00:34 10.6 °C 6.9 °C 1015.5 hPa NE 7.4 km/h 9.3 km/h 78% 0 mm 0.00 W/m2
00:35 10.6 °C 6.9 °C 1015.5 hPa NNE 9.3 km/h 9.3 km/h 78% 0 mm 0.00 W/m2
00:40 10.6 °C 6.9 °C 1015.5 hPa NNE 3.7 km/h 13 km/h 78% 0 mm 0.00 W/m2
00:45 10.5 °C 6.8 °C 1015.8 hPa NE 3.7 km/h 11.1 km/h 78% 0 mm 0.00 W/m2
00:50 10.6 °C 6.9 °C 1015.8 hPa NE 5.5 km/h 13 km/h 78% 0 mm 0.00 W/m2
00:55 10.6 °C 6.9 °C 1015.8 hPa NE 7.4 km/h 9.3 km/h 78% 0 mm 0.00 W/m2
01:00 10.6 °C 6.9 °C 1015.8 hPa NE 1.8 km/h 14.8 km/h 78% 0 mm 0.00 W/m2
01:05 10.6 °C 6.9 °C 1015.8 hPa NE 5.5 km/h 13 km/h 78% 0 mm 0.00 W/m2
01:10 10.6 °C 6.9 °C 1015.8 hPa NE 3.7 km/h 14.8 km/h 78% 0 mm 0.00 W/m2
01:15 10.5 °C 6.8 °C 1015.5 hPa NNE 5.5 km/h 11.1 km/h 78% 0 mm 0.00 W/m2
01:20 10.4 °C 6.9 °C 1015.8 hPa NNE 7.4 km/h 11.1 km/h 79% 0 mm 0.00 W/m2
01:25 10.3 °C 6.8 °C 1015.8 hPa NNE 1.8 km/h 9.3 km/h 79% 0 mm 0.00 W/m2
01:30 10.3 °C 6.8 °C 1015.8 hPa Calm   7.4 km/h 79% 0 mm 0.00 W/m2
01:35 10.3 °C 6.8 °C 1015.8 hPa NNE 1.8 km/h 7.4 km/h 79% 0 mm 0.00 W/m2
01:40 10.3 °C 6.8 °C 1015.8 hPa NNE 3.7 km/h 9.3 km/h 79% 0 mm 0.00 W/m2
01:45 10.3 °C 6.8 °C 1015.8 hPa NNE 1.8 km/h 7.4 km/h 79% 0 mm 0.00 W/m2
01:50 10.3 °C 6.8 °C 1015.8 hPa NE 5.5 km/h 11.1 km/h 79% 0 mm 0.00 W/m2
01:55 10.3 °C 6.8 °C 1015.8 hPa NNE 3.7 km/h 11.1 km/h 79% 0 mm 0.00 W/m2
02:00 10.3 °C 6.8 °C 1015.5 hPa NE 3.7 km/h 13 km/h 79% 0 mm 0.00 W/m2
02:05 10.3 °C 6.8 °C 1015.5 hPa NNE 1.8 km/h 11.1 km/h 79% 0 mm 0.00 W/m2
02:10 10.4 °C 6.8 °C 1015.5 hPa NE 1.8 km/h 9.3 km/h 78% 0 mm 0.00 W/m2
02:15 10.4 °C 6.9 °C 1015.5 hPa NE 11.1 km/h 11.1 km/h 79% 0 mm 0.00 W/m2
02:20 10.4 °C 6.8 °C 1015.5 hPa NE 9.3 km/h 13 km/h 78% 0 mm 0.00 W/m2
02:23 10.4 °C 6.8 °C 1015.5 hPa NE 1.8 km/h 11.1 km/h 78% 0 mm 0.00 W/m2
02:25 10.4 °C 6.8 °C 1015.5 hPa NE 5.6 km/h 13 km/h 78% 0 mm 0.00 W/m2
02:28 10.4 °C 6.9 °C 1015.5 hPa NE 7.4 km/h 14.8 km/h 79% 0 mm 0.00 W/m2
02:30 10.4 °C 6.8 °C 1015.5 hPa NE 1.8 km/h 14.8 km/h 78% 0 mm 0.00 W/m2
02:33 10.5 °C 6.8 °C 1015.5 hPa NE 5.5 km/h 11.1 km/h 78% 0 mm 0.00 W/m2
02:35 10.5 °C 6.8 °C 1015.5 hPa NE 5.6 km/h 11.1 km/h 78% 0 mm 0.00 W/m2
02:38 10.5 °C 6.8 °C 1015.5 hPa NNE 3.7 km/h 11.1 km/h 78% 0 mm 0.00 W/m2
02:40 10.5 °C 6.8 °C 1015.5 hPa NNE 3.7 km/h 11.1 km/h 78% 0 mm 0.00 W/m2
02:44 10.4 °C 6.9 °C 1015.5 hPa Calm   7.4 km/h 79% 0 mm 0.00 W/m2
02:45 10.4 °C 6.9 °C 1015.5 hPa NNE 3.7 km/h 9.3 km/h 79% 0 mm 0.00 W/m2
02:49 10.3 °C 6.8 °C 1015.5 hPa NNE 1.8 km/h 5.5 km/h 79% 0 mm 0.00 W/m2
02:50 10.3 °C 6.8 °C 1015.5 hPa NNE 11.1 km/h 11.1 km/h 79% 0 mm 0.00 W/m2
02:54 10.3 °C 6.8 °C 1015.5 hPa NE 5.5 km/h 11.1 km/h 79% 0 mm 0.00 W/m2
02:55 10.4 °C 6.9 °C 1015.1 hPa NE 5.6 km/h 11.1 km/h 79% 0 mm 0.00 W/m2
02:59 10.6 °C 7.1 °C 1015.5 hPa NNE 3.7 km/h 11.1 km/h 79% 0 mm 0.00 W/m2
03:04 10.6 °C 7.1 °C 1015.5 hPa NNE 3.7 km/h 3.7 km/h 79% 0 mm 0.00 W/m2
03:09 10.4 °C 7.1 °C 1015.1 hPa Calm   13 km/h 80% 0 mm 0.00 W/m2
03:14 10.4 °C 7.1 °C 1015.1 hPa NNE 1.8 km/h 11.1 km/h 80% 0 mm 0.00 W/m2
03:19 10.4 °C 7.2 °C 1015.1 hPa NNE 1.8 km/h 11.1 km/h 80% 0 mm 0.00 W/m2
03:24 10.5 °C 7.2 °C 1015.1 hPa NNE 5.5 km/h 9.3 km/h 80% 0 mm 0.00 W/m2
03:29 10.3 °C 7.1 °C 1015.5 hPa Calm   7.4 km/h 80% 0 mm 0.00 W/m2
03:34 10.3 °C 7.2 °C 1015.5 hPa NNE 7.4 km/h 9.3 km/h 81% 0 mm 0.00 W/m2
03:39 10.2 °C 7.1 °C 1015.1 hPa NNE 1.8 km/h 9.3 km/h 81% 0 mm 0.00 W/m2
03:44 10.3 °C 7.2 °C 1015.1 hPa NNE 1.8 km/h 11.1 km/h 81% 0 mm 0.00 W/m2
03:50 10.4 °C 7.2 °C 1015.5 hPa Calm   7.4 km/h 80% 0 mm 0.00 W/m2
03:55 10.4 °C 7.3 °C 1015.5 hPa NNE 5.5 km/h 9.3 km/h 81% 0 mm 0.00 W/m2
04:00 10.6 °C 7.4 °C 1015.5 hPa Calm   9.3 km/h 81% 0 mm 0.00 W/m2
04:05 10.7 °C 7.6 °C 1015.5 hPa NE 5.5 km/h 14.8 km/h 81% 0 mm 0.00 W/m2
04:10 10.8 °C 7.5 °C 1015.5 hPa Calm   11.1 km/h 80% 0 mm 0.00 W/m2
04:15 10.8 °C 7.5 °C 1015.5 hPa NE 5.5 km/h 11.1 km/h 80% 0 mm 0.00 W/m2
04:20 10.6 °C 7.7 °C 1015.5 hPa NE 5.5 km/h 13 km/h 82% 0 mm 0.00 W/m2
04:25 10.6 °C 7.8 °C 1015.5 hPa NE 1.8 km/h 9.3 km/h 83% 0 mm 0.00 W/m2
04:30 10.7 °C 7.9 °C 1015.5 hPa NE 3.7 km/h 13 km/h 83% 0 mm 0.00 W/m2
04:35 10.7 °C 7.9 °C 1015.5 hPa NNE 1.8 km/h 14.8 km/h 83% 0 mm 0.00 W/m2
04:40 10.7 °C 8.1 °C 1015.8 hPa Calm   9.3 km/h 84% 0 mm 0.00 W/m2
04:45 10.5 °C 7.9 °C 1015.5 hPa Calm   7.4 km/h 84% 0 mm 0.00 W/m2
04:50 10.4 °C 8.2 °C 1015.8 hPa Calm   1.8 km/h 86% 0 mm 0.00 W/m2
04:55 10.3 °C 8.1 °C 1015.8 hPa Calm     86% 0 mm 0.00 W/m2
05:00 10.3 °C 8.2 °C 1015.8 hPa Calm     87% 0 mm 0.00 W/m2
05:06 10.2 °C 8.2 °C 1015.8 hPa Calm     87% 0 mm 0.00 W/m2
05:11 10.2 °C 8.1 °C 1015.8 hPa NNE 1.8 km/h 5.5 km/h 87% 0 mm 0.00 W/m2
05:16 10.1 °C 8.2 °C 1015.8 hPa NNE 3.7 km/h 3.7 km/h 88% 0 mm 0.00 W/m2
05:21 10.2 °C 8.3 °C 1015.8 hPa Calm   3.7 km/h 88% 0 mm 0.00 W/m2
05:26 10.2 °C 8.3 °C 1015.8 hPa Calm   1.8 km/h 88% 0 mm 0.00 W/m2
05:31 10 °C 8.1 °C 1015.8 hPa Calm     88% 0 mm 0.00 W/m2
05:36 9.9 °C 8 °C 1015.8 hPa NNE 3.7 km/h 11.1 km/h 88% 0 mm 0.00 W/m2
05:41 9.8 °C 8.1 °C 1015.8 hPa NNE 5.5 km/h 5.5 km/h 89% 0 mm 5.00 W/m2
05:46 9.8 °C 8.1 °C 1016.1 hPa NNE 7.4 km/h 7.4 km/h 89% 0 mm 7.00 W/m2
05:51 10 °C 8.3 °C 1016.1 hPa NNE 1.8 km/h 5.5 km/h 89% 0 mm 11.00 W/m2
05:56 10.2 °C 8.6 °C 1016.1 hPa NNE 3.7 km/h 11.1 km/h 90% 0 mm 14.00 W/m2
06:01 10.3 °C 8.6 °C 1016.1 hPa NNE 5.5 km/h 7.4 km/h 89% 0 mm 21.00 W/m2
06:06 10.4 °C 8.7 °C 1016.1 hPa NNE 7.4 km/h 11.1 km/h 89% 0 mm 23.00 W/m2
06:12 10.5 °C 8.9 °C 1016.1 hPa NE 3.7 km/h 11.1 km/h 90% 0 mm 30.00 W/m2
06:17 10.9 °C 9.3 °C 1016.5 hPa NNE 1.8 km/h 13 km/h 90% 0 mm 72.00 W/m2
06:22 11.1 °C 9.3 °C 1016.5 hPa Calm   7.4 km/h 89% 0 mm 46.00 W/m2
06:27 11.2 °C 9.7 °C 1016.5 hPa North 5.5 km/h 9.3 km/h 90% 0 mm 107.00 W/m2
06:32 11.4 °C 9.8 °C 1016.5 hPa North 5.5 km/h 9.3 km/h 90% 0 mm 128.00 W/m2
06:37 11.9 °C 10.1 °C 1016.5 hPa NNE 5.5 km/h 9.3 km/h 89% 0 mm 125.00 W/m2
06:42 12.3 °C 10.4 °C 1016.5 hPa Calm   11.1 km/h 88% 0 mm 156.00 W/m2
06:47 12.7 °C 10.6 °C 1016.5 hPa Calm   13 km/h 87% 0 mm 171.00 W/m2
06:52 13 °C 10.7 °C 1016.5 hPa NE 3.7 km/h 13 km/h 86% 0 mm 174.00 W/m2
06:57 13.3 °C 11.1 °C 1016.5 hPa NE 1.8 km/h 9.3 km/h 86% 0 mm 204.00 W/m2
07:02 13.6 °C 11.1 °C 1016.5 hPa NE 7.4 km/h 16.6 km/h 85% 0 mm 218.00 W/m2
07:07 13.8 °C 11.3 °C 1016.5 hPa NNE 3.7 km/h 13 km/h 85% 0 mm 234.00 W/m2
07:13 14.2 °C 11.6 °C 1016.5 hPa NE 5.5 km/h 13 km/h 84% 0 mm 232.00 W/m2
07:18 14.4 °C 11.6 °C 1016.5 hPa NNE 11.1 km/h 14.8 km/h 83% 0 mm 267.00 W/m2
07:23 14.8 °C 12 °C 1016.5 hPa NE 11.1 km/h 11.1 km/h 83% 0 mm 283.00 W/m2
07:28 15.1 °C 12.1 °C 1016.5 hPa NE 3.7 km/h 13 km/h 82% 0 mm 287.00 W/m2
07:33 15.3 °C 12.4 °C 1016.5 hPa NE 13 km/h 14.8 km/h 83% 0 mm 302.00 W/m2
07:38 15.8 °C 12.7 °C 1016.5 hPa Calm   9.3 km/h 82% 0 mm 329.00 W/m2
07:43 16 °C 12.9 °C 1016.8 hPa NE 7.4 km/h 11.1 km/h 82% 0 mm 348.00 W/m2
07:48 16.3 °C 13 °C 1016.5 hPa NE 3.7 km/h 11.1 km/h 81% 0 mm 373.00 W/m2
07:53 16.6 °C 13.2 °C 1016.5 hPa NE 5.5 km/h 20.3 km/h 80% 0 mm 387.00 W/m2
07:58 16.9 °C 13.4 °C 1016.5 hPa NE 7.4 km/h 16.6 km/h 80% 0 mm 264.00 W/m2
08:03 17.2 °C 13.7 °C 1016.5 hPa NE 13 km/h 14.8 km/h 80% 0 mm 431.00 W/m2
08:08 17.4 °C 13.9 °C 1016.5 hPa NE 9.3 km/h 16.6 km/h 80% 0 mm 432.00 W/m2
08:13 17.7 °C 14 °C 1016.5 hPa NE 1.8 km/h 16.6 km/h 79% 0 mm 446.00 W/m2
08:19 18.1 °C 14.3 °C 1016.5 hPa NE 5.5 km/h 11.1 km/h 79% 0 mm 452.00 W/m2
08:24 18.5 °C 14.8 °C 1016.5 hPa ENE 1.8 km/h 13 km/h 79% 0 mm 461.00 W/m2
08:29 18.8 °C 14.9 °C 1016.5 hPa NNE 3.7 km/h 9.3 km/h 78% 0 mm 506.00 W/m2
08:34 19 °C 14.4 °C 1016.5 hPa NE 9.3 km/h 16.6 km/h 75% 0 mm 517.00 W/m2
08:39 19.3 °C 15.4 °C 1016.5 hPa NE 13 km/h 13 km/h 78% 0 mm 541.00 W/m2
08:44 19.8 °C 15.1 °C 1016.5 hPa ENE 7.4 km/h 20.3 km/h 74% 0 mm 561.00 W/m2
08:49 20 °C 15.4 °C 1016.5 hPa NE 9.3 km/h 11.1 km/h 75% 0 mm 548.00 W/m2
08:54 20.1 °C 15.5 °C 1016.5 hPa NE 5.5 km/h 16.6 km/h 75% 0 mm 552.00 W/m2
08:59 20.2 °C 15.4 °C 1016.5 hPa Calm   20.3 km/h 74% 0 mm 555.00 W/m2
09:04 20.4 °C 15.7 °C 1016.5 hPa NE 5.5 km/h 13 km/h 74% 0 mm 561.00 W/m2
09:09 20.8 °C 15.8 °C 1016.5 hPa ENE 9.3 km/h 16.6 km/h 73% 0 mm 520.00 W/m2
09:14 20.8 °C 15.8 °C 1016.1 hPa NE 3.7 km/h 18.5 km/h 73% 0 mm 652.00 W/m2
09:20 21.2 °C 16 °C 1016.1 hPa NE 5.5 km/h 14.8 km/h 72% 0 mm 664.00 W/m2
09:25 21.5 °C 15.6 °C 1016.1 hPa ENE 7.4 km/h 16.6 km/h 69% 0 mm 679.00 W/m2
09:30 21.8 °C 15.6 °C 1016.1 hPa ENE 16.6 km/h 16.6 km/h 68% 0 mm 679.00 W/m2
09:35 22.1 °C 16.2 °C 1016.1 hPa NE 9.3 km/h 18.5 km/h 69% 0 mm 608.00 W/m2
09:40 22.2 °C 15.8 °C 1016.1 hPa East 9.3 km/h 14.8 km/h 67% 0 mm 694.00 W/m2
09:45 22.4 °C 15.8 °C 1016.1 hPa East 13 km/h 16.6 km/h 66% 0 mm 728.00 W/m2
09:50 22.2 °C 15.3 °C 1016.1 hPa ENE 9.3 km/h 14.8 km/h 65% 0 mm 740.00 W/m2
09:55 22.3 °C 15.4 °C 1016.1 hPa ENE 9.3 km/h 20.3 km/h 65% 0 mm 689.00 W/m2
10:00 22.4 °C 15.5 °C 1016.1 hPa ENE 1.8 km/h 16.6 km/h 65% 0 mm 761.00 W/m2
10:05 22.7 °C 15.6 °C 1016.1 hPa ENE 9.3 km/h 16.6 km/h 64% 0 mm 740.00 W/m2
10:10 22.5 °C 15.6 °C 1016.1 hPa NE 11.1 km/h 22.2 km/h 65% 0 mm 779.00 W/m2
10:15 22.7 °C 16.3 °C 1016.1 hPa NE 9.3 km/h 14.8 km/h 67% 0 mm 721.00 W/m2
10:20 22.9 °C 15.9 °C 1016.1 hPa NE 7.4 km/h 22.2 km/h 65% 0 mm 758.00 W/m2
10:25 22.9 °C 16.2 °C 1016.1 hPa ENE 13 km/h 13 km/h 66% 0 mm 777.00 W/m2
10:30 23.3 °C 16.2 °C 1016.1 hPa North 7.4 km/h 13 km/h 64% 0 mm 831.00 W/m2
10:35 23.3 °C 14.8 °C 1016.1 hPa NNE 5.5 km/h 20.3 km/h 59% 0 mm 835.00 W/m2
10:40 23.2 °C 15.3 °C 1016.1 hPa NE 5.5 km/h 18.5 km/h 61% 0 mm 659.00 W/m2
10:45 23.4 °C 15.2 °C 1016.5 hPa NE 1.8 km/h 3.7 km/h 60% 0 mm 796.00 W/m2
10:50 23.4 °C 14.7 °C 1016.5 hPa NE 16.6 km/h 18.5 km/h 58% 0 mm 851.00 W/m2
10:55 23.5 °C 14.8 °C 1016.1 hPa NE 16.6 km/h 16.6 km/h 58% 0 mm 874.00 W/m2
11:01 23.7 °C 14.4 °C 1016.1 hPa NNW 3.7 km/h 13 km/h 56% 0 mm 879.00 W/m2
11:06 23.9 °C 14.9 °C 1016.1 hPa NE 3.7 km/h 9.3 km/h 57% 0 mm 886.00 W/m2
11:11 24.1 °C 14.5 °C 1016.1 hPa NNE 9.3 km/h 16.6 km/h 55% 0 mm 896.00 W/m2
11:16 24.2 °C 14.8 °C 1016.1 hPa ENE 18.5 km/h 18.5 km/h 56% 0 mm 902.00 W/m2
11:21 24 °C 14.7 °C 1016.1 hPa NE 9.3 km/h 14.8 km/h 56% 0 mm 909.00 W/m2
11:26 24.5 °C 15.2 °C 1016.1 hPa NE 18.5 km/h 18.5 km/h 56% 0 mm 914.00 W/m2
11:31 24.1 °C 14.5 °C 1016.1 hPa East 1.8 km/h 16.6 km/h 55% 0 mm 923.00 W/m2
11:36 24.3 °C 14.7 °C 1016.1 hPa Calm   5.5 km/h 55% 0 mm 926.00 W/m2
11:41 24.5 °C 14.6 °C 1016.1 hPa NE 25.9 km/h 25.9 km/h 54% 0 mm 932.00 W/m2
11:46 24.8 °C 14.3 °C 1015.8 hPa NE 18.5 km/h 18.5 km/h 52% 0 mm 935.00 W/m2
11:51 25 °C 14.2 °C 1016.1 hPa NE 14.8 km/h 20.3 km/h 51% 0 mm 942.00 W/m2
11:56 24.7 °C 14.4 °C 1015.8 hPa NE 1.8 km/h 16.6 km/h 53% 0 mm 946.00 W/m2
12:02 25.2 °C 15 °C 1015.8 hPa ENE 24 km/h 24 km/h 53% 0 mm 953.00 W/m2
12:07 25 °C 14.8 °C 1015.8 hPa NE 9.3 km/h 16.6 km/h 53% 0 mm 954.00 W/m2
12:12 25.2 °C 15.8 °C 1015.8 hPa ENE 16.6 km/h 18.5 km/h 56% 0 mm 958.00 W/m2
12:17 25.2 °C 13.8 °C 1015.5 hPa NE 16.6 km/h 24 km/h 49% 0 mm 963.00 W/m2
12:22 25.3 °C 14.7 °C 1015.5 hPa NE 20.3 km/h 22.2 km/h 52% 0 mm 965.00 W/m2
12:27 25.1 °C 13.9 °C 1015.5 hPa ENE 16.6 km/h 18.5 km/h 50% 0 mm 963.00 W/m2
12:32 25.7 °C 15.1 °C 1015.5 hPa NNE 9.3 km/h 20.3 km/h 52% 0 mm 967.00 W/m2
12:37 25.8 °C 14.9 °C 1015.5 hPa ENE 20.3 km/h 20.3 km/h 51% 0 mm 969.00 W/m2
12:42 25.7 °C 15.1 °C 1015.5 hPa East 9.3 km/h 14.8 km/h 52% 0 mm 969.00 W/m2
12:47 26.3 °C 14.8 °C 1015.1 hPa North 7.4 km/h 13 km/h 49% 0 mm 970.00 W/m2
12:52 26.2 °C 15.3 °C 1015.1 hPa NE 3.7 km/h 11.1 km/h 51% 0 mm 972.00 W/m2
12:57 26.3 °C 14.4 °C 1015.1 hPa ENE 7.4 km/h 24 km/h 48% 0 mm 972.00 W/m2
13:02 25.9 °C 14.1 °C 1015.1 hPa ENE 13 km/h 22.2 km/h 48% 0 mm 970.00 W/m2
13:08 26.2 °C 14.6 °C 1015.1 hPa NE 11.1 km/h 14.8 km/h 49% 0 mm 969.00 W/m2
13:13 26.4 °C 14.9 °C 1015.1 hPa NNE 1.8 km/h 16.6 km/h 49% 0 mm 965.00 W/m2
13:18 26.5 °C 14.3 °C 1015.1 hPa ENE 16.6 km/h 20.3 km/h 47% 0 mm 967.00 W/m2
13:23 26.6 °C 13.7 °C 1015.1 hPa North 9.3 km/h 20.3 km/h 45% 0 mm 965.00 W/m2
13:28 26.5 °C 15.6 °C 1015.1 hPa NE 18.5 km/h 25.9 km/h 51% 0 mm 962.00 W/m2
13:33 26.6 °C 14 °C 1015.1 hPa NE 20.3 km/h 20.3 km/h 46% 0 mm 962.00 W/m2
13:38 26.4 °C 13.9 °C 1014.8 hPa NE 11.1 km/h 20.3 km/h 46% 0 mm 954.00 W/m2
13:43 26.3 °C 13.4 °C 1014.8 hPa NNE 13 km/h 24 km/h 45% 0 mm 951.00 W/m2
13:48 26.6 °C 14.7 °C 1014.8 hPa NNE 11.1 km/h 11.1 km/h 48% 0 mm 947.00 W/m2
13:53 27 °C 14.1 °C 1014.4 hPa North 9.3 km/h 18.5 km/h 45% 0 mm 939.00 W/m2
13:58 26.9 °C 14.7 °C 1014.4 hPa North 20.3 km/h 20.3 km/h 47% 0 mm 940.00 W/m2
14:04 26.8 °C 13.9 °C 1014.4 hPa ENE 3.7 km/h 20.3 km/h 45% 0 mm 933.00 W/m2
14:09 26.7 °C 12.8 °C 1014.4 hPa ENE 14.8 km/h 18.5 km/h 42% 0 mm 926.00 W/m2
14:14 26.6 °C 12.2 °C 1014.4 hPa NE 16.6 km/h 27.7 km/h 41% 0 mm 921.00 W/m2
14:19 26.6 °C 13.3 °C 1014.4 hPa NE 1.8 km/h 25.9 km/h 44% 0 mm 912.00 W/m2
14:24 26.8 °C 14.2 °C 1014.4 hPa NNE 7.4 km/h 14.8 km/h 46% 0 mm 902.00 W/m2
14:29 26.8 °C 14.6 °C 1014.4 hPa NNE 7.4 km/h 25.9 km/h 47% 0 mm 896.00 W/m2
14:34 27 °C 13 °C 1014.4 hPa NE 11.1 km/h 18.5 km/h 42% 0 mm 886.00 W/m2
14:39 26.9 °C 14.9 °C 1014.4 hPa North 9.3 km/h 22.2 km/h 48% 0 mm 875.00 W/m2
14:44 27.3 °C 13.3 °C 1014.1 hPa NNE 14.8 km/h 22.2 km/h 42% 0 mm 867.00 W/m2
14:49 27.5 °C 14.9 °C 1014.1 hPa ENE 3.7 km/h 16.6 km/h 46% 0 mm 860.00 W/m2
14:54 27.9 °C 15.2 °C 1014.4 hPa NE 3.7 km/h 20.3 km/h 46% 0 mm 847.00 W/m2
14:59 27.6 °C 14.3 °C 1014.1 hPa NNE 9.3 km/h 22.2 km/h 44% 0 mm 844.00 W/m2
15:04 27.4 °C 14.4 °C 1014.1 hPa NE 13 km/h 22.2 km/h 45% 0 mm 826.00 W/m2
15:10 26.9 °C 14.3 °C 1014.1 hPa NE 11.1 km/h 20.3 km/h 46% 0 mm 814.00 W/m2
15:15 27.2 °C 14.6 °C 1014.1 hPa NNE 13 km/h 22.2 km/h 46% 0 mm 809.00 W/m2
15:20 27.1 °C 14.1 °C 1014.1 hPa NE 9.3 km/h 20.3 km/h 45% 0 mm 796.00 W/m2
15:25 27.1 °C 14.2 °C 1014.1 hPa NNE 11.1 km/h 22.2 km/h 45% 0 mm 775.00 W/m2
15:30 27.2 °C 14.6 °C 1013.8 hPa ENE 13 km/h 24 km/h 46% 0 mm 777.00 W/m2
15:35 27.4 °C 14.4 °C 1014.1 hPa NE 11.1 km/h 18.5 km/h 45% 0 mm 759.00 W/m2
15:38 27.3 °C 14.7 °C 1013.8 hPa NNE 7.4 km/h 18.5 km/h 46% 0 mm 754.00 W/m2
15:43 27.4 °C 14.8 °C 1014.1 hPa NNE 3.7 km/h 20.3 km/h 46% 0 mm 742.00 W/m2
15:48 27.4 °C 14.8 °C 1014.1 hPa NE 18.5 km/h 22.2 km/h 46% 0 mm 728.00 W/m2
15:53 27.1 °C 13.1 °C 1014.1 hPa ENE 13 km/h 24 km/h 42% 0 mm 712.00 W/m2
15:58 27.3 °C 15.9 °C 1014.1 hPa NE 5.5 km/h 18.5 km/h 50% 0 mm 703.00 W/m2
16:03 27.4 °C 14.4 °C 1014.1 hPa ENE 7.4 km/h 13 km/h 45% 0 mm 682.00 W/m2
16:08 26.9 °C 14 °C 1013.8 hPa NE 5.5 km/h 20.3 km/h 45% 0 mm 670.00 W/m2
16:13 27 °C 15.1 °C 1014.1 hPa NE 3.7 km/h 14.8 km/h 48% 0 mm 659.00 W/m2
16:18 27.2 °C 14.6 °C 1013.8 hPa NE 14.8 km/h 18.5 km/h 46% 0 mm 650.00 W/m2
16:24 27.2 °C 14.6 °C 1013.8 hPa NE 1.8 km/h 18.5 km/h 46% 0 mm 631.00 W/m2
16:29 26.8 °C 14.3 °C 1014.1 hPa East 16.6 km/h 20.3 km/h 46% 0 mm 621.00 W/m2
16:34 26.5 °C 13.3 °C 1014.1 hPa NE 11.1 km/h 22.2 km/h 44% 0 mm 605.00 W/m2
16:39 26.8 °C 13.9 °C 1014.1 hPa North 5.5 km/h 22.2 km/h 45% 0 mm 594.00 W/m2
16:44 26.6 °C 14.1 °C 1014.1 hPa NNE 11.1 km/h 22.2 km/h 46% 0 mm 578.00 W/m2
16:49 27.1 °C 14.4 °C 1014.1 hPa NE 5.5 km/h 7.4 km/h 46% 0 mm 561.00 W/m2
16:54 27 °C 14.7 °C 1014.1 hPa NNW 11.1 km/h 18.5 km/h 47% 0 mm 547.00 W/m2
16:59 26.8 °C 14.3 °C 1014.1 hPa NE 3.7 km/h 22.2 km/h 46% 0 mm 531.00 W/m2
17:04 26.6 °C 14 °C 1014.1 hPa NNE 7.4 km/h 25.9 km/h 46% 0 mm 513.00 W/m2
17:09 26.5 °C 13.9 °C 1014.1 hPa NE 5.5 km/h 22.2 km/h 46% 0 mm 499.00 W/m2
17:14 26.7 °C 13.8 °C 1013.8 hPa North 11.1 km/h 18.5 km/h 45% 0 mm 483.00 W/m2
17:19 26.2 °C 13.3 °C 1013.8 hPa NE 1.8 km/h 20.3 km/h 45% 0 mm 471.00 W/m2
17:24 26.2 °C 13.3 °C 1013.8 hPa North 3.7 km/h 13 km/h 45% 0 mm 455.00 W/m2
17:30 26.2 °C 12.9 °C 1013.8 hPa Calm   20.3 km/h 44% 0 mm 441.00 W/m2
17:35 26 °C 13.5 °C 1013.8 hPa ENE 7.4 km/h 18.5 km/h 46% 0 mm 424.00 W/m2
17:40 26.2 °C 13.7 °C 1013.8 hPa NNE 1.8 km/h 20.3 km/h 46% 0 mm 406.00 W/m2
17:45 26.2 °C 14 °C 1013.8 hPa NNE 16.6 km/h 20.3 km/h 47% 0 mm 390.00 W/m2
17:50 25.8 °C 12.7 °C 1013.8 hPa NNE 9.3 km/h 24 km/h 44% 0 mm 376.00 W/m2
17:55 25.8 °C 13.3 °C 1013.8 hPa ENE 5.5 km/h 25.9 km/h 46% 0 mm 359.00 W/m2
18:00 25.7 °C 12.9 °C 1013.8 hPa NE 11.1 km/h 18.5 km/h 45% 0 mm 341.00 W/m2
18:05 25.5 °C 12.4 °C 1013.8 hPa NE 9.3 km/h 18.5 km/h 44% 0 mm 323.00 W/m2
18:10 25.4 °C 12.9 °C 1013.8 hPa ENE 9.3 km/h 16.6 km/h 46% 0 mm 141.00 W/m2
18:15 25.3 °C 12.9 °C 1013.8 hPa ENE 3.7 km/h 5.5 km/h 46% 0 mm 288.00 W/m2
18:20 25.3 °C 13.2 °C 1013.8 hPa NNE 11.1 km/h 11.1 km/h 47% 0 mm 95.00 W/m2
18:25 25.1 °C 13.3 °C 1013.4 hPa NNE 9.3 km/h 9.3 km/h 48% 0 mm 204.00 W/m2
18:31 24.8 °C 13.1 °C 1013.4 hPa NE 3.7 km/h 3.7 km/h 48% 0 mm 237.00 W/m2
18:36 24.7 °C 12.9 °C 1013.4 hPa ENE 14.8 km/h 16.6 km/h 48% 0 mm 183.00 W/m2
18:41 24.3 °C 12.9 °C 1013.8 hPa NE 7.4 km/h 7.4 km/h 49% 0 mm 86.00 W/m2
18:46 24.1 °C 12.7 °C 1013.8 hPa NE 7.4 km/h 9.3 km/h 49% 0 mm 54.00 W/m2
18:51 23.8 °C 12.8 °C 1013.8 hPa NE 11.1 km/h 14.8 km/h 50% 0 mm 40.00 W/m2
18:56 23.6 °C 13.2 °C 1013.8 hPa NNE 7.4 km/h 7.4 km/h 52% 0 mm 39.00 W/m2
19:01 23.3 °C 12.6 °C 1013.8 hPa NE 9.3 km/h 14.8 km/h 51% 0 mm 37.00 W/m2
19:06 23.2 °C 12.6 °C 1013.8 hPa NE 5.5 km/h 11.1 km/h 51% 0 mm 33.00 W/m2
19:11 22.9 °C 12.6 °C 1013.8 hPa Calm   11.1 km/h 52% 0 mm 32.00 W/m2
19:16 22.8 °C 12.7 °C 1013.8 hPa NNE 1.8 km/h 11.1 km/h 53% 0 mm 30.00 W/m2
19:21 22.7 °C 12.9 °C 1014.1 hPa NNE 3.7 km/h 9.3 km/h 54% 0 mm 28.00 W/m2
19:26 22.4 °C 12.7 °C 1014.1 hPa Calm   9.3 km/h 54% 0 mm 26.00 W/m2
19:32 22.2 °C 12.5 °C 1014.1 hPa NE 5.5 km/h 13 km/h 54% 0 mm 23.00 W/m2
19:37 22.1 °C 12.3 °C 1014.1 hPa NE 7.4 km/h 7.4 km/h 54% 0 mm 19.00 W/m2
19:42 21.8 °C 12.4 °C 1014.1 hPa NNE 11.1 km/h 11.1 km/h 55% 0 mm 16.00 W/m2
19:47 21.5 °C 12.1 °C 1014.1 hPa NE 3.7 km/h 11.1 km/h 55% 0 mm 14.00 W/m2
19:52 21.3 °C 11.9 °C 1014.1 hPa NE 3.7 km/h 7.4 km/h 55% 0 mm 11.00 W/m2
19:57 20.9 °C 12.1 °C 1014.1 hPa NE 1.8 km/h 13 km/h 57% 0 mm 7.00 W/m2
20:02 20.7 °C 12.2 °C 1014.1 hPa NE 1.8 km/h 7.4 km/h 58% 0 mm 5.00 W/m2
20:07 20.5 °C 11.9 °C 1014.4 hPa NE 3.7 km/h 7.4 km/h 58% 0 mm 0.00 W/m2
20:12 20.2 °C 11.7 °C 1014.4 hPa NNE 3.7 km/h 13 km/h 58% 0 mm 0.00 W/m2
20:17 20.1 °C 11.6 °C 1014.4 hPa NE 5.5 km/h 14.8 km/h 58% 0 mm 0.00 W/m2
20:22 19.8 °C 11.6 °C 1014.4 hPa NE 7.4 km/h 7.4 km/h 59% 0 mm 0.00 W/m2
20:27 19.6 °C 11.3 °C 1014.4 hPa NE 3.7 km/h 11.1 km/h 59% 0 mm 0.00 W/m2
20:32 19.5 °C 11.6 °C 1014.4 hPa NE 7.4 km/h 9.3 km/h 60% 0 mm 0.00 W/m2
20:38 19.2 °C 11.6 °C 1014.4 hPa NE 7.4 km/h 11.1 km/h 61% 0 mm 0.00 W/m2
20:43 19.1 °C 11.4 °C 1014.4 hPa Calm   5.5 km/h 61% 0 mm 0.00 W/m2
20:48 18.7 °C 11.3 °C 1014.8 hPa NE 1.8 km/h 5.5 km/h 62% 0 mm 0.00 W/m2
20:53 18.4 °C 11.3 °C 1014.8 hPa NE 5.5 km/h 7.4 km/h 63% 0 mm 0.00 W/m2
20:58 18.1 °C 11.2 °C 1014.8 hPa NE 5.5 km/h 9.3 km/h 64% 0 mm 0.00 W/m2
21:03 17.9 °C 11.3 °C 1014.8 hPa NE 1.8 km/h 5.5 km/h 65% 0 mm 0.00 W/m2
21:08 17.7 °C 11.3 °C 1014.8 hPa Calm   3.7 km/h 66% 0 mm 0.00 W/m2
21:13 17.4 °C 11.4 °C 1015.1 hPa NE 3.7 km/h 5.5 km/h 68% 0 mm 0.00 W/m2
21:18 17.3 °C 11.4 °C 1015.1 hPa NE 3.7 km/h 7.4 km/h 68% 0 mm 0.00 W/m2
21:23 17.2 °C 11.4 °C 1014.8 hPa NE 3.7 km/h 9.3 km/h 69% 0 mm 0.00 W/m2
21:28 17.2 °C 11.4 °C 1015.1 hPa Calm   7.4 km/h 69% 0 mm 0.00 W/m2
21:33 17 °C 11.5 °C 1015.1 hPa NE 1.8 km/h 9.3 km/h 70% 0 mm 0.00 W/m2
21:39 16.8 °C 11.8 °C 1015.1 hPa NE 1.8 km/h 9.3 km/h 72% 0 mm 0.00 W/m2
21:44 16.8 °C 11.7 °C 1015.1 hPa NE 7.4 km/h 9.3 km/h 72% 0 mm 0.00 W/m2
21:49 16.8 °C 12.2 °C 1015.1 hPa NE 9.3 km/h 9.3 km/h 74% 0 mm 0.00 W/m2
21:54 16.6 °C 12.2 °C 1015.1 hPa NE 7.4 km/h 9.3 km/h 75% 0 mm 0.00 W/m2
21:59 16.6 °C 12.3 °C 1015.1 hPa NE 5.5 km/h 9.3 km/h 76% 0 mm 0.00 W/m2
22:04 16.5 °C 12.3 °C 1015.1 hPa NE 1.8 km/h 13 km/h 76% 0 mm 0.00 W/m2
22:09 16.4 °C 12.2 °C 1015.1 hPa NE 3.7 km/h 9.3 km/h 76% 0 mm 0.00 W/m2
22:14 16.2 °C 12.2 °C 1015.1 hPa NE 1.8 km/h 7.4 km/h 77% 0 mm 0.00 W/m2
22:19 16.2 °C 12.3 °C 1015.1 hPa NE 1.8 km/h 9.3 km/h 78% 0 mm 0.00 W/m2
22:24 16.2 °C 12.2 °C 1015.1 hPa Calm   9.3 km/h 77% 0 mm 0.00 W/m2
22:29 16.1 °C 12.3 °C 1015.1 hPa NE 1.8 km/h 7.4 km/h 78% 0 mm 0.00 W/m2
22:34 15.9 °C 12.1 °C 1015.5 hPa NE 5.5 km/h 9.3 km/h 78% 0 mm 0.00 W/m2
22:40 15.8 °C 12.2 °C 1015.5 hPa NE 3.7 km/h 9.3 km/h 79% 0 mm 0.00 W/m2
22:45 15.6 °C 12 °C 1015.5 hPa NE 3.7 km/h 7.4 km/h 79% 0 mm 0.00 W/m2
22:50 15.4 °C 12 °C 1015.5 hPa NE 3.7 km/h 9.3 km/h 80% 0 mm 0.00 W/m2
22:55 15.3 °C 11.9 °C 1015.5 hPa NE 3.7 km/h 9.3 km/h 80% 0 mm 0.00 W/m2
23:00 15.4 °C 12 °C 1015.5 hPa NE 5.5 km/h 9.3 km/h 80% 0 mm 0.00 W/m2
23:05 15.6 °C 12.2 °C 1015.5 hPa Calm   7.4 km/h 80% 0 mm 0.00 W/m2
23:10 15.4 °C 12 °C 1015.5 hPa NE 3.7 km/h 9.3 km/h 80% 0 mm 0.00 W/m2
23:15 15.4 °C 11.9 °C 1015.5 hPa NE 1.8 km/h 9.3 km/h 80% 0 mm 0.00 W/m2
23:20 15.4 °C 11.9 °C 1015.5 hPa Calm   5.5 km/h 80% 0 mm 0.00 W/m2
23:25 15.2 °C 11.7 °C 1015.5 hPa NE 3.7 km/h 5.5 km/h 80% 0 mm 0.00 W/m2
23:30 15.1 °C 11.8 °C 1015.5 hPa NE 9.3 km/h 9.3 km/h 81% 0 mm 0.00 W/m2
23:35 15 °C 11.8 °C 1015.5 hPa Calm   9.3 km/h 81% 0 mm 0.00 W/m2
23:40 15.2 °C 12 °C 1015.5 hPa Calm   9.3 km/h 81% 0 mm 0.00 W/m2
23:45 15.5 °C 12.3 °C 1015.5 hPa NE 5.5 km/h 11.1 km/h 81% 0 mm 0.00 W/m2
23:50 15.5 °C 12.3 °C 1015.5 hPa Calm   7.4 km/h 81% 0 mm 0.00 W/m2
23:55 15.4 °C 12.2 °C 1015.5 hPa NE 1.8 km/h 7.4 km/h 81% 0 mm 0.00 W/m2
Juneau County Weather
Compliments of Weather Underground - 4 mb